Location: Florence
(33.9745°N, 118.2481°W)
Time: 20:08:11
(UTC+00:00)

ARIANE 5 R/B - Pass Details

Date: 23 March 2023
Orbit: 747 x 794 km, 98.8° (Epoch: 05 June)

Event Time Altitude Azimuth Distance (km) Brightness Sun altitude
Rises 13:05:39 0° 356° (N) 3,263 5.8 -10.6°
Reaches altitude 10° 13:08:24 10° 342° (NNW) 2,340 4.9 -10.0°
Maximum altitude 13:12:18 22° 293° (WNW) 1,656 3.8 -9.2°
Drops below altitude 10° 13:16:13 10° 243° (WSW) 2,348 4.4 -8.4°
Enters shadow 13:17:02 - 238° (WSW) 2,605 4.7 -8.2°
